This is the latest recevied weather packets stored in our database for station/object AE0NK. If no packets are shown the sender has not sent any weather packets the latest 10 day(s).
| Time | Temp. | Humidity | Pressure | Rain* | Wind** | Luminosity | Snow |
|---|---|---|---|---|---|---|---|
| 1777733601 | 11.11° C | 58% | 1020.9 hPa | 0 mm | - | 642 W/m² | - |
| 1777733296 | 11.11° C | 59% | 1020.8 hPa | 0 mm | - | 629 W/m² | - |
| 1777732995 | 11.11° C | 59% | 1020.8 hPa | 0 mm | - | 605 W/m² | - |
| 1777732711 | 10.56° C | 57% | 1020.9 hPa | 0 mm | - | 592 W/m² | - |
| 1777732407 | 10.56° C | 60% | 1020.9 hPa | 0 mm | - | 584 W/m² | - |
| 1777732124 | 10° C | 62% | 1020.9 hPa | 0 mm | - | 564 W/m² | - |
| 1777731800 | 10° C | 62% | 1020.9 hPa | 0 mm | - | 550 W/m² | - |
| 1777731499 | 10° C | 67% | 1020.7 hPa | 0 mm | - | 536 W/m² | - |
| 1777731197 | 10° C | 65% | 1020.8 hPa | 0 mm | - | 526 W/m² | - |
| 1777730893 | 9.44° C | 68% | 1020.8 hPa | 0 mm | - | 512 W/m² | - |
| 1777730610 | 9.44° C | 68% | 1020.7 hPa | 0 mm | - | 496 W/m² | - |
| 1777730305 | 8.89° C | 69% | 1020.8 hPa | 0 mm | - | 466 W/m² | - |
| 1777730003 | 8.89° C | 71% | 1020.8 hPa | 0 mm | - | 420 W/m² | - |
| 1777729692 | 8.33° C | 71% | 1020.7 hPa | 0 mm | - | 378 W/m² | - |
| 1777729104 | 8.33° C | 72% | 1020.7 hPa | 0 mm | - | 309 W/m² | - |
| 1777728802 | 8.33° C | 73% | 1020.6 hPa | 0 mm | - | 292 W/m² | - |
| 1777728499 | 7.78° C | 75% | 1020.6 hPa | 0 mm | - | 283 W/m² | - |
| 1777728197 | 7.22° C | 76% | 1020.7 hPa | 0 mm | - | 279 W/m² | - |
| 1777727893 | 7.22° C | 78% | 1020.7 hPa | 0 mm | - | 274 W/m² | - |
| 1777727591 | 6.67° C | 79% | 1020.6 hPa | 0 mm | - | 255 W/m² | - |
| 1777727311 | 6.11° C | 83% | 1020.6 hPa | 0 mm | - | 234 W/m² | - |
| 1777727009 | 5.56° C | 85% | 1020.5 hPa | 0 mm | - | 167 W/m² | - |
| 1777726703 | 5° C | 87% | 1020.5 hPa | 0 mm | - | 77 W/m² | - |
| 1777726401 | 4.44° C | 88% | 1020.5 hPa | 0 mm | - | 86 W/m² | - |
| 1777726093 | 4.44° C | 89% | 1020.5 hPa | 0 mm | - | 77 W/m² | - |
* Rain latest hour (hover to see other rain measurements)
** Current wind speed in m/s (hover to see current wind gust speed)